Location: Corralito
(10.2667°N, 66.9500°W)
Time: 00:01:31
(UTC+00:00)

BLOCK DM-SL R/B - Visible Passes

Search period start: 05 December 2023 00:00
Search period end: 15 December 2023 00:00
Orbit: 935 x 35718 km, 1.3° (Epoch: 04 December)

Date Brightness Start Highest point End Pass type
(mag) Time Alt. Az. Time Alt. Az. Time Alt. Az.
05 Dec 7.4 16:49:30 10° WSW 01:02:09 75° SE 02:30:51 54° ESE visible
06 Dec 6.0 14:10:09 10° WSW 22:19:41 35° E 23:57:35 10° E visible
07 Dec 10.8 23:12:51 10° W 00:49:43 33° W 04:54:38 10° W visible
08 Dec 5.3 08:39:18 20° WSW 08:52:18 49° SSW 08:58:13 10° ESE visible
08 Dec 7.2 20:12:49 10° W 22:11:23 73° SW 06:18:57 10° ESE visible
09 Dec 7.8 17:28:53 10° WSW 00:30:47 79° S 03:37:08 10° E visible
10 Dec 6.4 14:49:05 10° WSW 22:59:17 48° ESE 00:38:29 19° E visible
12 Dec 11.1 00:11:58 10° W 01:28:06 20° W 03:47:55 10° W visible
12 Dec 5.0 09:19:15 10° W 09:32:14 40° SSW 09:37:14 10° ESE visible
12 Dec 7.1 20:55:20 10° W 22:48:32 61° WSW 06:58:03 10° ESE visible
13 Dec 7.5 18:08:39 10° WSW 23:17:51 79° S 04:17:27 10° ESE visible
